Weather in Fatima

Portugal     39°37′16″N   8°39′29″W
temp.,
°C
wind,
m/s
gust,
m/s
humid.,
%
clouds,
%
prec.,
mm/h
press.,
hPa
HPBL,
m
28 july, wed
wed2801:00+15nnw4149424 0.0 1015496
04:00+15nw4139630 0.0 1014417
07:00+15nnw369621 0.0 1013224
10:00+22nnw36530 0.0 1014561
13:00+28nnw54360 0.0 10131203
16:00+27nw55400 0.0 1013792
19:00+22nnw69560 0.0 1013518
22:00+15nw4129216 0.0 1014351
29 july, thu
thu2901:00+14nw399619 0.0 1014270
04:00+14nw369727 0.0 1013250
07:00+15nw369078 0.0 1014317
10:00+20nw35681 0.0 1015535
13:00+25nw45430 0.0 1015823
16:00+25nw57410 0.0 1015751
19:00+20nnw610580 0.0 1015625
22:00+15nnw5149427 0.0 1016462
30 july, fri
fri3001:00+15nnw5159220 0.0 1016512
04:00+16nnw5149225 0.0 1015509
07:00+17nnw5128969 0.0 1016523
10:00+21nnw59695 0.0 1017661
13:00+26nw67430 0.0 1017974
16:00+25nw68430 0.0 1016951
19:00+21nnw710640 0.0 1016754
22:00+16nnw5139150 0.0 1017642
31 july, sat
sat3101:00+15nnw6138819 0.0 1017651
04:00+15nnw6138680 0.0 1016688
07:00+15nnw7148293 0.0 1016717
10:00+19nnw913603 0.0 1017829
13:00+22nnw9114481 0.0 1018991
16:00+22nnw91145100 0.0 1018977
19:00+18nnw91465100 0.0 1018736
22:00+15nnw8158097 0.0 1019731
1 august, sun
sun101:00+15nnw71482100 0.0 1018665
04:00+14nnw6148817 0.0 1017589
07:00+14nnw6138820 0.0 1017564
10:00+19nnw711534 0.0 1017769
13:00+23nnw79380 0.0 10171038
16:00+23nnw81038100 0.0 1016907
19:00+18nnw71570100 0.0 1016665
22:00+16nnw71687100 0.0 1016626